STARLINK-31689, 59567

Orbit data source: Space-Track

STARLINK-31689, 59567 is a payload satellite owned by SpaceX/Seattle (US) in LEO that was launched on Tue, 23 Apr 2024 UTC via an FALCON 9 launch vehicle from the Air Force Eastern Test Range (AFETR). Payload-class satellites include a variety of spacecraft equipped with specific instruments for various scientific and technological missions. These include communications satellites like Starlink; space stations such as the ISS; scientific satellites like the Hubble; Earth observation satellites from companies like Planet Labs, Umbra, and HawkEye 360; GPS; miniature CubeSats for education and research; and military/defense satellites.

Loading next visibility...
Identifier
59567, 2024-076D
Orbit
LEO
Country
Flag of USUS
Related business
Manufacturer
SpaceX/Seattle
Mission
Operational Commercial Communications
Bus & Motor
STARLINK V2M, Unknown motor
Mass
730 kg wet, ~700 kg dry
Launch date (UTC)
2024-04-23 (2 years ago)
Launch vehicle
FALCON 9
Launch site
Air Force Eastern Test Range (AFETR)
Object type
Payload
Rocket body
Debris
Shape & HBR
Box + 2 Pan, 17.7 m
Radar Cross Section
33.884 m², Large (>1 m²)

Expand to show TLE details & history
Last TLE update: 1 day ago

TLE from 1 day ago
0 STARLINK-31689
1 59567U 24076D   25302.67200596  .00012753  00000-0  47174-3 0  9992
2 59567  43.0022  25.6006 0001386 261.1652  98.9043 15.27607827 86502
Epoch: 2025-10-29T16:07Z
TLE epoch observation values (Epoch: 2025-10-29T16:07:41.314Z)
Latitude
-0.00002°
Longitude
105.43665°
Altitude
482.889 km
Speed
7.626 km/s
True Right ascension
01h 42m 24s
True Declination
0° 00' 00"
Sunlit
Object was in full shadow at epoch
Visualization orbit readout
Latitude
Unknown
Longitude
Unknown
Altitude
Unknown
Speed
Unknown
Apparent Right ascension
Unknown
Apparent Declination
Unknown
Sunlit
N/A
Visualization observer readout
Local Sidereal Time
11:52:28
Azimuth
Unknown
Elevation
Unknown
Doppler factor
Unknown
Orbital elements
Apogee altitude
485.862 km
Perigee altitude
483.959 km
Semi-major axis
6,863.048 km
Eccentricity
0.00014
Inclination
43.0022°
RAAN
25.6006°
Arg. of periapsis
261.1652°
True anomaly
98.91999°
Mean anomaly
98.9043°
Eccentric anomaly
98.91215°
Mean motion
3.8174 °/min
Orbital period
94.31 mins
BSTAR
0.00047174
Loading maneuver chart data...
Computing Atmospheric mass density...
Loading historical data...
Loading historical data...
Loading historical data...
Loading historical data...
Loading historical data...
Loading historical data...
Loading historical data...

Documentation

Showing up to 5 results
|